Retour au catalogue

STARLINK-35926

ActifCommunicationsVLEO
NORAD 66642·PAYLOAD·🇺🇸 United States

Lancé Nov 23, 2025 depuis Vandenberg Space Force Base

Loading…

Prochains Passages (prochaines 24 heures)

TLE

FraisSource: CelesTrak SupGP

Époque: Sep 15, 2026, 02:52 UTC

1 66642C 25271AB  26258.11993056  .00066924  00000+0  19773-2 0  2581
2 66642  53.1592 338.8207 0001193  82.8403  24.3802 15.34357804    11

Suivez STARLINK-35926 en temps réel avec AllMySat

Download on the App Store